Temp
60 60 60 60 60 60 60 60 60 60 60 60 60 60 60 60 59 57 54 68 69 71 72 77 75 75 74 70 73 73 53 50 57 62 66 75 73 86 90 85 86 87 85 87 90
59 60 60 60 59 59 60 60 60 60 60 60 60 60 60 60 54 52 66 71 71 72 72 72 72 74 65 66 68 62 51 56 67 70 67 73 74 77 79 79 81 83 86 90 89
59 59 59 59 59 59 59 59 59 60 60 60 60 59 59 58 51 60 73 70 71 73 75 75 74 71 62 66 66 63 59 66 69 73 74 73 75 80 76 74 78 80 83 88 87
58 59 59 59 59 59 59 59 59 60 59 59 59 59 59 54 46 67 74 73 73 73 71 70 68 61 58 59 68 60 68 70 71 75 75 71 77 75 77 77 83 83 84 84 84
58 58 59 58 58 58 59 59 59 59 59 59 59 59 55 45 48 69 73 74 75 72 67 66 62 60 55 60 64 63 67 71 73 73 74 76 73 74 75 82 86 86 84 82 78
57 58 58 58 58 58 58 58 57 57 58 58 59 59 51 38 61 67 69 70 70 67 65 65 63 64 58 58 59 63 65 67 70 71 73 72 73 76 78 84 84 82 80 81 79
57 57 57 57 58 58 58 57 57 57 57 58 59 59 50 45 62 64 63 61 65 66 64 69 70 65 61 56 65 66 59 64 67 67 68 74 68 70 80 83 80 81 78 79 79
57 57 57 57 57 57 57 56 56 57 58 59 59 56 44 61 61 59 60 60 65 67 67 70 70 62 59 63 63 57 56 51 64 68 70 69 58 73 79 77 76 79 82 84 84
57 56 56 57 57 57 56 56 56 58 60 59 52 49 42 64 59 64 64 61 67 69 69 76 66 59 58 51 47 51 47 50 57 66 66 66 62 71 77 76 73 75 77 80 82
56 56 56 56 56 56 55 55 56 58 59 61 60 46 52 55 67 70 69 67 63 64 62 60 56 52 47 46 41 45 48 53 53 61 65 64 63 71 75 76 76 77 79 79 80
56 56 55 55 55 55 53 47 53 49 52 49 54 53 56 64 68 66 71 66 64 58 48 53 44 44 50 53 54 54 52 53 56 64 62 62 62 66 70 71 71 74 76 77 73
55 55 55 55 55 55 49 46 55 54 43 57 58 57 62 63 54 60 68 56 54 47 52 47 43 52 57 56 54 52 49 48 56 62 60 60 60 66 70 70 73 73 75 74 69
55 55 55 55 54 51 50 55 60 57 41 51 55 57 58 60 53 55 62 58 51 47 48 43 48 58 55 52 51 51 48 50 50 58 62 58 55 59 67 69 69 69 70 70 71
54 54 55 54 51 50 51 60 57 55 32 43 50 55 61 60 52 64 65 58 52 47 49 47 54 52 51 50 53 45 56 56 54 51 43 58 43 57 62 65 68 68 69 70 72
54 54 54 53 45 46 56 56 57 50 21 51 52 66 62 55 59 59 68 59 49 50 49 44 49 48 48 51 57 50 58 55 55 49 46 50 42 48 60 60 64 69 73 69 70
54 54 54 51 45 51 56 55 51 31 20 42 53 54 53 55 56 57 59 60 59 52 52 50 58 55 52 56 57 59 54 53 53 45 37 49 46 46 54 60 63 67 69 72 71
53 53 51 54 46 55 53 47 29 22 45 41 42 51 48 46 49 50 49 47 41 37 37 47 49 55 59 50 54 50 41 32 30 32 36 52 47 52 57 62 67 69 72 70 64
53 52 50 55 52 53 47 37 23 37 37 46 46 49 43 46 46 46 43 39 49 46 39 38 34 49 57 50 45 44 42 32 26 28 37 53 41 49 64 71 73 74 69 66 62
51 44 47 53 55 51 40 24 25 35 42 41 42 40 40 45 44 42 40 38 42 41 34 35 38 53 54 55 51 44 41 47 39 45 36 42 51 57 66 69 71 68 66 62 60
44 42 46 57 55 47 34 33 38 47 48 45 32 40 34 38 39 37 40 44 42 44 44 40 32 48 53 56 53 47 51 39 37 30 28 40 44 48 56 60 65 66 63 60 61
42 42 52 56 52 39 26 33 43 52 51 43 41 38 38 36 39 38 39 46 47 46 44 39 36 38 47 45 42 42 41 43 42 39 32 32 40 58 58 64 65 62 64 62 62
40 37 54 56 39 34 29 41 47 48 51 47 46 43 38 39 37 39 38 42 50 46 37 41 33 29 37 49 52 47 44 41 33 35 41 39 42 62 60 66 62 64 65 64 64
39 39 53 55 30 27 38 43 46 46 47 46 43 43 41 37 32 39 43 49 49 44 39 39 31 25 31 40 46 43 46 44 42 43 38 40 43 65 64 67 66 63 64 65 64
38 34 41 40 40 34 35 37 39 49 48 48 44 43 39 38 41 36 40 48 47 47 49 43 34 30 24 34 41 37 41 44 39 38 42 44 51 60 63 63 62 64 65 64 65
39 36 39 34 36 36 37 39 38 37 45 46 42 41 37 32 35 33 39 42 47 48 43 37 30 35 35 39 40 41 41 42 39 40 35 47 49 59 63 61 64 66 66 65 65
36 36 41 39 38 36 38 36 39 41 41 39 37 42 40 35 36 33 37 38 37 41 37 39 32 36 33 40 40 38 43 44 44 44 43 45 46 61 64 62 62 66 67 65 66
41 42 39 40 39 37 37 39 38 42 42 45 42 40 38 41 46 46 45 44 42 40 37 35 33 32 28 39 40 32 39 43 46 48 47 42 53 63 57 60 58 65 68 67 68
MSLP
1022.26 1021.97 1021.59 1021.29 1021.03 1020.67 1020.14 1019.80 1019.48 1019.10 1018.53 1017.93 1017.57 1017.28 1016.82 1016.34 1015.87 1015.32 1014.10 1011.02 1010.42 1010.04 1010.35 1010.44 1010.71 1010.65 1010.94 1010.93 1010.46 1010.31 1011.15 1010.72 1009.49 1007.94 1006.37 1005.90 1006.37 1004.36 1004.02 1003.99 1003.47 1003.21 1003.16 1002.98 1003.01
1022.32 1021.92 1021.62 1021.25 1020.86 1020.51 1020.27 1019.82 1019.26 1018.88 1018.34 1018.01 1017.65 1017.44 1016.99 1016.50 1015.80 1013.85 1010.37 1009.77 1009.52 1009.79 1010.32 1010.25 1010.33 1010.35 1010.77 1010.43 1010.28 1010.21 1010.10 1009.25 1007.97 1006.96 1006.34 1005.68 1006.36 1006.45 1004.93 1004.11 1003.80 1003.21 1002.69 1002.30 1002.00
1022.40 1021.98 1021.55 1021.13 1020.71 1020.31 1019.92 1019.52 1019.16 1018.62 1018.27 1017.95 1017.53 1017.12 1016.86 1016.58 1015.14 1010.66 1008.59 1008.90 1008.89 1009.37 1009.70 1009.80 1010.12 1010.41 1010.52 1010.31 1009.88 1009.31 1008.15 1008.15 1007.30 1006.98 1006.63 1006.03 1005.66 1005.50 1005.31 1004.55 1003.88 1003.14 1002.58 1001.93 1002.11
1022.35 1021.88 1021.42 1021.00 1020.52 1020.06 1019.63 1019.18 1018.77 1018.40 1018.09 1017.74 1017.53 1017.11 1016.58 1016.46 1013.96 1009.30 1008.97 1009.06 1008.93 1009.50 1009.81 1009.63 1010.01 1010.33 1010.23 1009.91 1009.58 1009.09 1007.85 1007.69 1007.30 1006.78 1006.51 1005.89 1005.31 1004.72 1004.47 1003.98 1003.54 1003.00 1002.64 1002.40 1002.35
1022.24 1021.72 1021.18 1020.67 1020.18 1019.68 1019.17 1018.70 1018.41 1018.23 1018.00 1017.74 1017.32 1017.18 1016.86 1016.18 1013.33 1009.44 1009.41 1009.70 1009.32 1009.19 1009.26 1009.38 1009.60 1009.91 1009.86 1009.57 1009.45 1007.92 1007.63 1007.68 1006.97 1006.48 1005.85 1005.53 1004.93 1004.39 1003.25 1002.96 1002.53 1002.32 1002.23 1002.19 1002.10
1022.12 1021.68 1021.19 1020.69 1020.08 1019.41 1018.74 1018.28 1017.96 1017.58 1017.25 1017.10 1017.02 1016.85 1016.70 1015.44 1011.64 1010.40 1010.05 1009.95 1009.75 1009.55 1009.11 1009.07 1009.01 1009.35 1009.69 1009.41 1009.20 1007.73 1007.71 1007.26 1006.75 1006.19 1005.56 1005.37 1004.32 1003.86 1002.86 1002.45 1001.90 1001.82 1001.73 1001.59 1001.51
1022.04 1021.54 1020.98 1020.35 1019.58 1018.88 1018.19 1017.71 1017.21 1016.73 1016.47 1016.43 1016.35 1016.20 1015.51 1013.65 1010.99 1010.24 1010.15 1010.06 1009.82 1009.92 1009.59 1008.73 1008.69 1009.08 1009.11 1009.08 1008.29 1007.91 1007.90 1007.23 1005.91 1005.94 1005.50 1005.51 1003.40 1002.00 1002.52 1002.25 1001.69 1001.59 1001.44 1001.26 1001.08
1021.90 1021.36 1020.83 1020.15 1019.49 1018.74 1017.95 1017.02 1016.01 1015.81 1015.46 1015.58 1015.75 1015.70 1014.09 1011.15 1010.78 1010.22 1009.41 1009.87 1009.36 1009.24 1009.19 1008.79 1008.73 1009.09 1009.08 1008.60 1008.10 1008.13 1007.85 1006.83 1004.39 1005.45 1005.36 1006.13 1000.48 1001.81 1002.02 1001.92 1001.34 1001.11 1000.82 1000.42 1000.17
1021.75 1021.15 1020.54 1019.85 1019.05 1018.36 1017.42 1016.41 1015.04 1014.65 1014.50 1014.93 1015.45 1015.40 1013.18 1010.21 1009.60 1008.15 1008.67 1008.88 1008.48 1008.35 1008.24 1007.96 1008.22 1008.66 1008.94 1009.11 1009.07 1008.19 1006.97 1005.99 1004.44 1005.31 1005.41 1005.03 999.34 1002.10 1001.67 1001.41 1001.07 1000.90 1000.40 1000.00 999.50
1021.52 1020.88 1020.26 1019.63 1018.81 1018.14 1017.18 1015.99 1014.43 1014.14 1014.31 1014.64 1014.61 1015.28 1012.02 1009.65 1008.33 1008.01 1007.48 1008.01 1008.19 1007.94 1007.86 1008.07 1008.39 1008.51 1008.68 1008.84 1007.27 1007.34 1006.73 1005.13 1005.35 1005.31 1004.99 1004.12 1000.95 1001.67 1001.41 1001.17 1000.52 1000.24 999.78 999.43 998.98
1021.36 1020.64 1019.82 1019.09 1018.32 1017.93 1017.27 1016.40 1014.91 1014.38 1014.27 1014.02 1013.66 1012.84 1011.27 1008.71 1009.47 1008.25 1007.97 1008.05 1007.84 1007.88 1008.50 1008.38 1008.56 1007.01 1006.79 1007.75 1008.00 1007.05 1006.78 1006.00 1005.50 1004.93 1004.47 1003.29 1001.62 1001.10 1001.04 1000.63 1000.27 999.82 999.45 998.82 998.48
1021.15 1020.49 1019.52 1018.57 1017.60 1017.04 1017.30 1016.67 1015.48 1015.18 1013.34 1013.06 1012.16 1010.94 1009.58 1009.15 1009.09 1007.70 1008.26 1008.52 1008.04 1008.23 1008.18 1008.54 1007.16 1007.63 1007.92 1007.92 1007.75 1007.41 1006.98 1006.16 1006.03 1004.99 1004.34 1003.92 1001.19 1001.58 1000.58 1000.07 999.52 999.26 998.89 998.43 998.06
1020.90 1020.18 1019.49 1018.36 1017.28 1016.73 1016.65 1015.83 1014.66 1014.33 1014.26 1012.42 1011.80 1009.12 1007.68 1007.46 1007.93 1007.77 1007.91 1008.05 1008.16 1008.25 1008.09 1008.09 1007.65 1007.72 1007.98 1007.75 1007.50 1006.88 1006.85 1006.73 1006.08 1005.75 1004.41 1004.15 1001.98 1001.44 999.77 999.32 998.88 998.48 997.94 997.55 997.31
1020.84 1020.05 1019.36 1018.55 1017.25 1017.07 1016.14 1015.04 1014.46 1014.29 1014.21 1012.87 1011.19 1009.31 1007.71 1007.41 1007.50 1006.90 1006.47 1007.84 1007.48 1007.57 1007.92 1007.67 1007.43 1007.49 1007.55 1007.17 1007.21 1006.36 1006.70 1006.36 1006.25 1006.05 1005.15 1004.66 1002.08 1000.65 999.56 998.58 998.25 997.83 997.42 996.99 996.64
1020.53 1019.86 1019.21 1018.84 1018.32 1017.33 1015.64 1014.72 1014.12 1014.51 1014.07 1011.57 1010.16 1008.27 1008.05 1008.40 1006.95 1006.19 1005.85 1006.54 1006.92 1007.23 1007.51 1007.16 1006.90 1007.11 1006.83 1006.48 1006.31 1005.86 1006.06 1005.91 1006.07 1005.84 1005.62 1004.75 1003.80 998.23 998.61 998.14 997.59 996.90 996.40 996.39 996.02
1019.93 1019.26 1018.96 1018.24 1018.25 1016.28 1015.12 1014.69 1014.54 1015.31 1014.17 1012.19 1010.60 1008.55 1008.06 1007.94 1007.30 1007.44 1006.30 1006.03 1006.89 1006.84 1006.82 1006.81 1006.69 1006.47 1006.15 1006.06 1005.93 1005.85 1005.75 1005.81 1006.12 1006.34 1005.34 1003.57 1003.27 998.50 998.20 997.28 996.56 995.89 995.86 995.81 995.83
1019.32 1018.48 1018.34 1018.09 1017.11 1015.44 1015.24 1015.46 1015.93 1015.85 1014.49 1012.97 1011.49 1010.08 1009.29 1008.80 1008.24 1008.25 1007.58 1007.64 1008.17 1007.94 1007.32 1006.83 1006.34 1005.81 1005.57 1005.71 1005.63 1005.99 1006.50 1006.71 1006.68 1006.26 1002.92 1002.52 1002.27 998.05 996.89 995.93 995.40 995.48 995.31 995.46 995.85
1018.72 1017.84 1017.15 1016.73 1016.08 1015.85 1016.00 1016.55 1016.90 1016.48 1015.37 1014.18 1012.57 1010.90 1010.34 1009.82 1009.31 1008.74 1008.37 1008.35 1008.47 1008.65 1007.81 1007.21 1006.70 1005.66 1005.18 1005.35 1005.56 1005.61 1006.29 1006.01 1005.60 1004.85 1003.53 1002.95 999.95 997.61 995.74 995.29 994.83 994.97 995.10 995.71 996.20
1018.25 1017.56 1017.04 1015.81 1015.57 1016.04 1016.91 1017.43 1017.33 1016.84 1015.55 1014.42 1013.10 1011.74 1011.15 1010.88 1010.65 1009.92 1009.46 1009.70 1009.64 1009.36 1009.07 1007.94 1006.85 1005.96 1005.55 1005.41 1005.54 1005.25 1005.39 1005.67 1005.86 1004.71 1003.98 1001.62 999.04 996.42 994.93 994.25 994.10 994.42 995.31 996.01 996.57
1018.68 1018.02 1016.72 1015.16 1015.49 1016.44 1017.51 1017.61 1016.69 1015.76 1014.89 1014.35 1014.30 1012.78 1012.32 1011.57 1010.96 1010.43 1009.97 1009.99 1009.84 1009.86 1009.58 1009.13 1008.40 1006.74 1005.79 1005.52 1005.12 1005.28 1005.44 1005.60 1005.70 1005.07 1004.03 1001.17 998.94 996.66 994.48 993.97 993.81 993.89 995.12 996.14 996.76
1018.70 1017.96 1015.65 1015.30 1015.71 1017.29 1018.08 1017.38 1015.97 1014.87 1014.19 1013.88 1013.35 1013.11 1012.88 1012.57 1011.91 1011.06 1010.24 1009.34 1009.56 1010.02 1010.16 1009.63 1009.11 1007.97 1007.05 1006.06 1005.61 1005.57 1005.24 1005.19 1005.00 1004.44 1003.28 1001.41 998.39 994.94 994.21 993.66 993.50 993.30 994.25 995.51 996.42
1019.69 1018.27 1015.56 1015.63 1017.02 1017.96 1017.95 1016.91 1015.76 1014.50 1013.71 1013.20 1012.82 1012.89 1013.01 1012.73 1011.89 1010.98 1010.56 1010.25 1010.03 1010.34 1010.40 1010.20 1010.01 1009.15 1007.50 1006.29 1005.65 1005.71 1005.57 1005.86 1005.48 1004.40 1002.67 1001.43 998.50 994.15 993.76 992.74 992.30 993.14 994.17 995.40 996.24
1020.70 1018.93 1016.08 1015.93 1017.90 1018.46 1017.88 1016.85 1015.71 1014.49 1013.49 1012.98 1012.87 1012.79 1013.02 1012.96 1012.60 1011.57 1010.67 1010.04 1009.99 1010.40 1010.48 1010.66 1010.60 1009.80 1007.66 1006.06 1005.94 1006.12 1005.65 1005.64 1005.12 1004.34 1002.72 1001.38 997.47 993.60 993.42 992.88 993.01 993.33 994.73 995.58 996.47
1021.12 1019.95 1018.28 1018.09 1018.57 1018.77 1018.14 1017.12 1015.95 1014.58 1013.59 1013.30 1012.88 1012.93 1013.01 1012.64 1012.11 1011.50 1010.73 1009.88 1009.87 1010.12 1010.46 1011.29 1010.94 1010.22 1008.92 1007.48 1007.24 1006.43 1005.79 1005.71 1005.42 1003.90 1002.62 1000.25 997.06 994.87 993.95 993.81 994.21 993.93 994.58 995.45 996.33
1021.28 1020.79 1019.95 1019.51 1018.96 1018.87 1018.36 1017.10 1016.13 1015.11 1014.26 1013.41 1013.07 1013.16 1013.40 1012.56 1011.85 1011.13 1010.58 1010.06 1009.66 1009.81 1010.60 1011.41 1011.02 1010.06 1008.81 1007.85 1007.28 1006.17 1005.37 1005.29 1004.80 1004.02 1002.78 1000.58 998.74 995.92 994.91 994.28 994.07 993.71 994.60 995.37 996.24
1021.75 1021.55 1020.65 1020.05 1019.21 1018.68 1017.88 1017.17 1016.26 1015.45 1014.93 1013.83 1013.54 1012.83 1012.62 1012.49 1011.85 1011.05 1010.61 1010.14 1009.62 1009.75 1010.22 1010.79 1010.61 1009.72 1008.23 1007.00 1006.18 1005.47 1004.61 1004.47 1003.94 1003.27 1002.53 1001.07 998.51 996.39 995.93 994.23 995.73 994.25 994.73 995.39 995.97
1022.00 1021.56 1021.13 1019.64 1018.93 1018.58 1017.77 1017.07 1016.28 1015.52 1014.56 1013.87 1013.29 1012.50 1011.76 1011.03 1010.40 1009.67 1008.91 1008.58 1008.65 1008.63 1009.11 1009.84 1009.92 1009.32 1007.97 1006.60 1005.35 1004.79 1003.31 1002.90 1002.63 1002.37 1001.54 1000.04 997.82 996.29 996.09 995.55 996.43 995.63 994.86 995.05 995.54
Wind_Speed
15 15 14 15 15 15 17 17 17 18 18 19 19 20 20 21 22 5 9 13 10 14 1 2 5 5 3 4 5 4 1 6 8 6 6 5 8 28 14 6 4 4 5 8 10
15 15 15 15 15 15 14 15 17 16 17 18 18 19 19 20 12 11 20 18 18 10 4 8 8 5 3 6 4 6 6 11 7 4 4 6 2 13 18 22 8 9 2 5 3
15 15 16 16 17 17 17 16 15 17 16 17 18 19 18 17 7 9 5 18 23 18 9 4 4 4 7 5 6 5 18 8 9 7 7 9 11 9 15 20 8 8 8 7 6
17 17 17 18 18 18 17 17 17 16 15 16 17 17 19 3 8 2 7 9 8 16 5 5 6 5 6 10 13 17 17 17 16 14 11 14 15 17 18 20 13 10 9 5 7
18 19 20 20 20 20 20 20 19 18 16 15 15 13 6 4 11 22 22 17 12 5 16 11 10 7 8 6 9 23 19 17 11 14 18 16 20 22 25 21 21 12 8 9 8
18 19 20 21 22 22 21 21 20 20 19 16 14 11 7 14 10 16 15 8 7 6 5 9 7 7 3 6 8 4 4 10 10 16 16 18 23 22 25 23 23 12 12 11 10
18 20 22 23 24 24 24 23 23 22 21 17 13 8 12 22 7 7 9 8 7 8 6 3 8 6 6 3 13 15 16 16 20 9 8 11 26 29 21 21 20 15 9 9 10
18 18 21 22 23 24 25 26 27 24 23 15 10 6 10 13 10 18 17 10 10 11 11 10 6 5 5 5 6 4 5 15 23 19 8 6 36 19 11 11 17 18 20 21 21
19 20 22 24 26 26 25 27 30 22 10 5 3 4 13 11 5 13 13 10 6 6 6 9 3 7 4 3 2 6 12 16 22 8 2 15 40 10 11 14 13 14 16 17 21
20 22 23 24 25 23 24 25 25 10 5 7 4 3 7 9 5 15 6 11 8 4 3 2 3 7 4 7 21 11 19 17 10 5 13 22 35 21 21 22 24 23 23 21 21
22 23 25 25 24 20 13 8 8 4 5 5 14 14 20 33 24 16 11 4 5 4 7 5 4 21 19 15 10 10 11 16 4 9 12 18 24 18 13 14 15 19 20 20 15
24 25 26 27 25 26 1 1 7 7 12 11 18 23 27 27 27 32 16 4 2 7 5 4 20 10 7 7 10 15 17 18 9 10 8 13 27 17 20 19 20 18 20 18 10
24 24 25 28 29 5 3 5 8 6 4 11 22 18 10 12 22 25 14 11 9 7 6 10 6 9 14 12 16 16 19 16 16 14 22 14 21 13 17 15 10 10 13 11 13
24 24 24 26 6 6 5 9 7 1 3 7 16 9 17 3 3 20 23 13 5 10 8 10 11 13 12 15 18 21 13 12 17 13 12 6 22 22 13 20 16 11 11 11 12
24 24 22 18 5 4 8 8 6 6 3 10 8 6 4 8 11 13 15 16 19 16 7 7 6 3 14 15 14 19 12 13 17 9 7 15 7 2 13 19 15 16 16 10 12
24 25 23 3 2 10 10 7 5 6 4 8 7 17 13 13 13 10 16 13 7 23 17 15 9 14 14 15 12 5 6 13 15 0 10 13 12 7 12 13 10 9 9 12 9
25 27 17 2 5 6 6 5 6 6 9 11 22 13 7 9 10 8 6 1 1 4 9 5 5 4 10 13 10 3 2 2 2 4 18 14 11 19 10 10 17 15 15 8 4
28 25 3 5 6 5 4 6 6 3 6 19 15 14 7 10 6 11 11 5 4 10 3 4 6 8 2 3 5 7 10 6 8 5 5 15 11 10 15 20 24 17 11 6 7
22 4 4 5 7 2 6 5 5 2 10 13 17 7 4 10 2 6 4 4 6 9 3 1 5 3 12 9 1 3 11 5 5 13 2 5 9 12 24 27 21 15 8 8 8
4 4 4 3 3 6 6 3 2 7 11 5 2 8 12 9 7 5 4 1 3 4 2 3 4 6 8 8 4 6 5 6 4 7 4 6 6 10 7 7 10 12 11 9 7
3 4 5 4 5 6 2 5 9 13 11 5 11 4 6 7 11 5 3 6 2 4 5 3 5 4 4 4 6 3 3 4 3 4 6 4 8 9 12 15 14 7 16 16 13
4 3 4 4 4 1 2 6 11 13 11 8 4 5 3 5 6 5 4 3 5 1 3 2 1 4 8 12 14 4 6 4 2 6 5 1 10 6 3 14 7 13 15 12 13
4 4 4 5 3 4 6 10 7 14 12 6 5 2 3 3 4 6 3 6 3 1 3 3 2 4 8 1 2 5 2 2 4 6 8 11 11 3 7 11 7 16 13 14 15
3 5 6 5 2 2 6 5 9 11 13 13 9 1 3 7 5 6 5 4 6 5 5 6 4 7 5 5 6 8 8 8 1 7 13 14 21 23 19 5 6 15 17 16 16
1 3 1 5 7 9 6 7 15 10 5 10 4 8 7 6 9 4 3 5 6 9 6 5 4 10 12 16 15 17 16 11 9 9 6 7 14 17 13 7 13 17 17 19 18
3 4 4 7 6 5 7 3 15 16 11 6 8 16 6 6 8 13 13 10 7 5 10 8 5 8 13 17 18 19 16 14 13 15 11 16 24 19 4 12 5 18 19 19 18
3 3 2 5 4 6 3 15 16 15 8 12 13 14 9 14 13 17 19 19 11 10 8 10 5 2 8 15 4 5 15 17 7 8 4 8 11 13 3 8 5 8 18 20 19
Wind_Direction
359 355 349 345 343 341 337 334 330 327 327 327 327 326 329 327 318 287 234 228 195 225 155 270 205 199 202 246 222 153 153 222 221 200 244 92 8 289 309 274 326 154 172 185 197
353 350 344 340 336 331 327 324 322 322 323 319 319 320 327 326 303 248 242 221 218 215 193 192 225 206 208 222 246 179 195 214 241 278 284 321 220 284 312 307 300 286 198 244 358
341 340 338 334 329 325 320 317 313 314 315 314 316 320 326 325 276 243 260 235 230 225 229 194 232 211 216 228 209 229 236 221 252 266 264 271 271 247 278 279 257 278 300 312 307
344 341 336 331 326 323 318 315 312 311 310 309 311 318 323 294 263 31 42 344 302 227 215 190 213 196 197 218 233 258 251 244 251 259 261 251 272 274 266 262 253 250 246 243 227
342 339 334 330 326 322 319 316 313 309 305 302 304 312 338 273 252 273 292 326 309 208 212 205 195 177 190 206 222 246 252 251 256 253 250 265 265 265 273 280 279 267 251 246 231
342 339 334 330 327 322 316 312 309 305 301 299 298 299 278 272 241 270 294 310 324 328 241 170 196 191 251 218 231 304 266 273 261 254 257 258 262 258 263 269 277 284 280 274 258
340 336 333 330 327 323 318 315 308 299 296 295 291 284 258 252 225 274 292 294 283 284 277 260 216 196 190 274 237 246 264 278 258 247 272 277 267 250 252 262 268 274 267 270 263
335 329 328 323 321 320 317 312 303 298 294 283 275 280 263 261 245 256 261 271 255 255 234 246 220 219 203 281 319 201 226 246 248 243 238 237 263 258 253 277 277 278 280 280 276
334 329 327 325 323 323 318 312 301 307 288 227 154 176 266 295 236 253 231 231 264 250 211 266 225 194 239 183 341 211 242 232 254 220 223 207 259 211 219 242 262 265 270 269 273
336 331 324 321 322 322 319 310 296 317 132 163 218 303 265 272 267 317 186 197 228 251 317 219 220 211 191 171 215 215 222 236 255 198 211 234 262 261 265 267 269 270 269 268 266
338 333 328 325 324 323 331 345 9 340 337 220 278 248 269 279 294 292 336 321 249 142 185 211 184 221 217 228 267 273 266 253 249 202 215 240 256 254 250 257 264 264 265 264 256
339 337 331 327 327 322 249 350 323 248 308 313 286 274 258 256 274 283 292 282 273 225 195 227 231 248 274 270 233 242 264 265 286 285 250 247 259 271 266 264 257 260 260 254 246
337 335 333 328 323 345 252 277 316 10 308 338 322 303 269 225 236 262 269 270 249 235 218 222 220 217 238 247 251 248 237 258 263 289 288 291 286 270 265 262 259 241 243 246 239
334 332 331 334 354 328 302 293 316 17 63 305 344 284 334 116 242 235 252 233 247 218 222 258 247 257 264 243 228 246 250 249 241 251 260 200 279 256 261 266 266 250 252 257 262
330 329 329 328 265 319 261 304 328 58 50 319 284 239 145 301 315 335 218 220 235 233 176 220 302 260 234 247 233 248 260 238 245 259 248 246 275 276 218 245 250 252 254 251 253
327 324 331 345 258 241 292 312 49 49 306 319 311 350 9 358 10 2 329 41 298 226 230 234 220 237 242 255 256 286 254 231 251 265 256 217 225 253 224 230 248 249 262 257 272
324 320 320 243 242 295 328 31 39 86 309 340 329 343 358 344 2 354 357 204 343 6 281 249 236 239 241 256 264 211 35 248 240 185 236 182 226 243 275 256 241 246 254 260 262
322 317 263 214 234 295 37 41 54 344 304 327 324 318 351 2 5 336 3 10 173 238 247 200 272 224 195 165 243 173 170 187 195 199 254 253 239 241 242 255 255 254 265 160 124
322 320 296 258 230 93 63 44 192 325 291 326 321 301 326 356 278 335 358 327 43 11 15 50 251 358 311 299 133 269 221 205 291 277 302 236 257 281 256 258 256 247 162 173 149
321 331 278 208 167 60 71 272 236 264 311 338 312 307 328 328 338 355 325 37 326 58 357 313 324 255 296 341 256 199 282 162 215 225 223 276 258 236 283 264 260 243 175 155 152
27 16 262 134 64 49 127 239 293 323 333 306 326 299 320 329 314 272 325 324 83 338 292 296 166 274 319 224 237 355 244 207 172 195 188 322 278 235 257 276 267 217 169 157 149
352 15 291 78 32 41 299 287 315 310 313 274 282 331 336 286 282 316 349 253 40 97 339 316 127 276 247 246 270 263 242 157 228 260 238 111 272 230 313 287 186 157 147 145 136
336 279 324 79 49 309 298 315 303 309 312 318 298 140 181 263 323 324 302 260 143 354 348 344 308 299 311 323 210 231 183 38 254 235 238 192 254 105 337 354 184 132 139 135 132
346 348 329 30 150 316 313 290 313 315 309 340 291 129 305 295 235 263 261 269 183 180 312 336 226 240 222 260 324 276 286 305 296 230 230 232 258 273 295 278 211 137 138 136 137
59 278 206 305 323 315 302 277 323 329 311 306 307 340 337 291 313 266 299 276 209 214 173 149 248 242 242 262 270 268 264 264 264 267 258 274 276 263 281 248 193 146 138 136 142
27 3 341 287 275 296 299 317 316 337 321 305 318 314 293 258 237 272 276 264 226 197 166 182 238 252 288 277 253 245 237 238 251 274 278 267 274 273 298 56 244 145 142 146 154
313 311 236 260 280 305 257 320 315 334 293 310 305 313 283 274 279 269 254 251 239 207 199 178 209 224 272 296 136 264 227 223 203 219 241 250 270 292 181 80 31 205 157 158 161